ヒル彗星

P/2010 A1 ( Hill )

English version
Home page
Updated on October 3, 2010

---------------------------------------------------------------------

・ プロフィール

発見日 2010年1月6日
発見光度 17.6等
発見者 R. E. Hill (Catalina)

・ 写真集

・ 軌道要素

Epoch 2009 July 28.0 TT = JDT 2455040.5
T 2009 Aug. 6.81173 TT                                  MPC
q   1.9499519            (2000.0)            P               Q
n   0.10772910     Peri.   13.09946     +0.49490185     -0.85885046
a   4.3743551      Node    47.41562     +0.78019802     +0.37226364
e   0.5542310      Incl.   10.33498     +0.38257446     +0.35184608
P   9.15

・ 光度変化

        m1 = 13.5 + 5 logΔ + 10.0 log r

---------------------------------------------------------------------

軌道要素はM.P.E.C. 2010-F15に掲載されたものです。
光度グラフはComet for Windowsで作成したものです。

---------------------------------------------------------------------

Copyright(C) Seiichi Yoshida (comet@aerith.net). All rights reserved.